Regional Weather Roundup
Issued by NWS State College, PA

Home | Current Version | Previous Version | Graphics & Text | Print | Product List | Glossary Off
Versions: 1 2 3 4 5 6 7 8 9 10 11 12 13 14 15 16 17 18 19 20 21 22 23 24 25 26 27 28 29 30 31 32 33 34 35 36 37 38 39 40 41 42 43 44 45 46 47 48 49 50

000
ASUS41 KCTP 281610
RWRCTP

REGIONAL WEATHER ROUNDUP
NATIONAL WEATHER SERVICE STATE COLLEGE PA
1100 AM EST WED JAN 28 2015

Note: "fair" indicates few or no clouds below 12,000 feet with no
significant weather and/or obstructions to visibility.

* = STATION THAT DOES NOT REPORT PRECIPITATION /E.G. RAIN...SNOW...ETC/
    THUNDER OR FOG.

PAZ002>004-007>009-013>016-020>023-029>032-281700-
WESTERN PENNSYLVANIA

CITY           SKY/WX    TMP DP  RH WIND       PRES   REMARKS
ERIE           SUNNY     16  10  77 SW7       30.35R WCI   6
MEADVILLE      MOSUNNY   13   9  84 NW3       30.29S
FRANKLIN*      SUNNY     12   7  79 W7        30.30R WCI   2
NEW CASTLE     FAIR      13   7  77 CALM      30.36R
BEAVER COUNTY  SUNNY     14  12  92 W3        30.33R
BUTLER*        SUNNY     16   9  73 W8        30.35R WCI   5
PITTSBURGH INT MOSUNNY   14   9  80 NW6       30.34R WCI   5
PITTSBURGH     SUNNY     16   7  67 W7        30.33S WCI   6
INDIANA*       CLOUDY    14  10  85 W9G17     30.34R WCI   2
LATROBE        FLURRIES  16  10  79 W12       30.36R WCI   3
WASHINGTON CO* SUNNY     18  10  73 MISG      30.36R
$$

PAZ004>006-010>012-017>019-024>028-033>037-041-042-045-046-049>053-281700-
CENTRAL PENNSYLVANIA

CITY           SKY/WX    TMP DP  RH WIND       PRES   REMARKS
BRADFORD       SUNNY     14   3  61 W7        30.18R WCI   4
DUBOIS         SUNNY     13   9  84 W10       30.23R WCI   0
CLEARFIELD     SUNNY     17   3  54 NW5       30.24R WCI  10
JOHNSTOWN      SUNNY     11   4  73 W14       30.20R WCI  -5
ALTOONA        SUNNY     18   4  54 NW13      30.23R WCI   5
STATE COLLEGE  SUNNY     19   5  53 W8        30.23R WCI   9
WILLIAMSPORT   SUNNY     20   4  50 W15       30.22R WCI   6
SELINSGROVE    SUNNY     24   3  40 NW10      30.23R WCI  14
FT INDIANTOWN  SUNNY     24  -1  34 NW15G25   30.19S WCI  11
CAPITAL CITY   SUNNY     27   2  34 NW13      30.22R
HARRISBURG     SUNNY     25   4  40 NW21G30   30.20S WCI  11
YORK           NOT AVBL
$$

PAZ038>040-043-044-047-048-054-055-060>062-067>071-281700-
EASTERN PENNSYLVANIA

CITY           SKY/WX    TMP DP  RH WIND       PRES   REMARKS
SCRANTON       SUNNY     20   5  52 NW9       30.14R WCI   9
MOUNT POCONO   SUNNY     16   3  56 NW15G26   30.00R WCI   1
ALLENTOWN      SUNNY     23   4  44 NW15G23   30.13R WCI  10
QUAKERTOWN*    NOT AVBL
READING        SUNNY     24   3  40 NW12      30.17R WCI  13
LANCASTER      SUNNY     23   3  42 NW18G26   30.17R WCI   9
COATESVILLE    SUNNY     25   5  42 NW15      30.14R WCI  12
POTTSTOWN      SUNNY     23   1  38 NW14G21   30.15R WCI  11
BLUE BELL      SUNNY     28   3  34 NW9G18    30.13R
DOYLESTOWN     NOT AVBL
WILLOW GROVE   NOT AVBL
NORTH PHILA    SUNNY     27   3  35 NW12G26   30.14R
PHILADELPHIA   SUNNY     27   1  32 NW21      30.15R WCI  13
$$



USA.gov is the U.S. government's official web portal to all federal, state and local government web resources and services.